Theta_e
301 301 301 301 301 301 299 299 304 304 305 303 302 300 300 300 301 298 301 302 299 299 299 298 298 297 300 304 311 313 314 311 312 314 315 317 320 321 319 321 323 323 323 328 330
299 300 301 303 303 303 300 298 304 303 303 305 304 303 300 301 300 303 305 300 299 299 300 300 302 301 302 305 306 310 308 307 309 312 314 314 314 314 316 320 321 322 323 322 322
299 299 301 303 305 304 302 299 301 303 304 305 304 303 303 302 301 305 306 302 300 300 300 300 303 302 301 304 304 305 306 304 307 308 308 310 311 312 314 317 319 320 319 319 320
301 299 302 304 304 302 300 299 300 304 304 304 304 304 304 303 302 300 302 305 303 301 301 302 302 301 302 302 303 304 302 304 303 303 303 304 305 308 309 312 313 313 312 313 317
302 303 303 301 300 298 298 299 301 303 302 303 304 305 305 304 303 300 302 303 302 301 301 301 300 300 301 301 302 303 302 301 301 301 302 301 302 303 304 305 306 307 308 309 315
303 301 298 299 300 300 301 301 302 302 303 304 304 305 304 304 302 301 300 299 298 299 299 299 300 300 300 300 301 301 301 301 301 301 302 303 302 301 301 301 303 305 307 310 315
299 298 302 303 304 304 304 304 304 303 303 302 302 304 304 304 302 301 299 299 298 298 300 300 300 300 301 301 301 301 302 302 302 301 301 301 301 301 301 300 300 302 304 306 308
298 302 303 305 305 303 303 302 303 301 300 301 300 302 303 301 301 298 297 297 298 298 299 300 300 300 301 301 301 301 302 303 302 301 301 301 302 302 300 300 301 301 301 303 306
299 302 304 304 303 303 301 301 300 300 301 300 298 301 302 300 297 296 296 296 297 298 299 300 301 301 300 302 303 302 303 303 303 301 301 301 302 302 300 299 299 299 299 300 304
302 304 304 303 301 299 298 297 301 300 299 299 298 300 298 297 296 296 296 298 298 300 301 301 301 303 303 303 303 303 302 302 302 301 301 301 302 302 301 300 300 300 301 301 302
303 303 300 298 297 299 301 301 300 299 297 297 296 296 295 296 297 297 298 298 300 300 302 301 303 304 303 303 303 303 303 303 303 301 300 302 301 302 301 301 301 301 301 301 301
301 302 300 298 302 302 301 300 299 297 298 295 294 295 296 297 297 298 297 299 300 301 302 303 303 303 303 303 303 303 304 305 303 302 300 301 301 301 301 301 300 300 301 302 302
303 302 300 302 302 302 301 299 297 295 295 294 293 295 296 296 298 298 298 300 300 302 303 304 304 303 304 304 305 304 304 304 304 303 301 300 302 301 301 300 300 300 299 299 300
304 303 302 303 302 301 300 298 296 294 298 295 294 296 295 294 297 297 298 301 303 304 303 304 303 303 304 304 304 307 305 304 303 305 303 301 302 302 302 301 301 300 300 299 300
304 303 303 302 301 300 298 297 294 296 300 294 294 294 294 295 297 301 300 301 302 303 303 304 305 305 305 305 304 306 305 304 303 303 303 303 302 301 301 301 301 301 300 300 301
304 303 303 301 300 297 296 293 295 299 299 292 292 294 294 295 296 297 300 301 301 302 303 304 303 303 304 304 305 303 303 303 302 303 304 303 303 302 302 302 302 302 300 301 302
303 302 301 300 297 296 294 295 300 299 290 295 293 294 294 295 297 298 298 300 303 305 305 304 305 303 303 306 304 303 303 304 304 304 303 299 302 302 303 305 304 304 301 304 308
302 301 299 297 295 294 295 300 297 286 289 292 294 293 294 295 298 296 298 301 302 303 304 302 303 305 305 305 306 304 303 304 303 302 302 299 301 302 303 302 302 303 306 306 308
300 298 296 295 295 294 296 300 296 290 293 293 294 294 294 294 295 296 297 298 301 303 302 301 303 303 303 305 305 305 305 303 305 304 306 305 306 304 301 302 305 304 302 301 302
298 296 296 295 295 294 297 295 291 289 292 293 294 293 293 294 296 297 297 298 300 300 299 299 302 306 305 304 303 304 304 305 306 306 310 308 306 302 302 302 302 301 299 298 298
297 297 296 296 294 293 298 291 287 290 292 293 294 294 294 295 295 296 297 299 300 299 297 300 301 305 306 304 303 304 305 306 307 305 312 309 304 300 301 300 300 299 298 298 298
297 298 295 296 294 282 292 285 289 293 294 293 294 295 295 295 296 296 298 298 298 297 298 299 301 305 304 303 300 301 305 306 308 308 306 304 302 299 299 299 298 297 296 296 298
297 295 295 297 299 292 286 289 290 293 293 294 294 295 295 295 296 296 297 297 297 298 299 300 303 303 304 302 301 303 303 306 304 304 303 304 301 298 298 297 297 297 296 296 297
296 298 294 293 290 291 290 291 292 291 293 294 295 294 295 295 294 296 297 297 297 297 297 301 302 302 302 304 302 301 302 302 302 302 300 300 299 298 298 298 297 295 294 294 295
296 294 292 297 293 291 292 291 293 294 293 293 293 294 294 295 295 294 296 297 298 296 295 296 302 301 301 302 301 300 300 301 302 301 300 299 297 297 297 297 296 294 293 293 294
296 294 293 290 291 293 292 294 293 293 294 294 294 294 294 295 297 296 295 295 296 294 295 294 301 297 301 298 301 300 298 300 299 300 300 299 298 296 294 294 294 293 293 292 292
295 295 295 292 292 294 295 294 295 293 294 294 294 293 293 294 294 293 293 293 292 293 294 294 293 295 305 296 301 302 297 297 299 298 299 298 297 295 294 293 292 293 292 291 291
Wind_Speed
8 9 7 9 9 12 13 12 11 11 12 13 13 14 18 21 23 22 8 5 2 6 8 6 7 7 5 2 3 5 7 14 20 17 16 14 14 16 6 8 12 14 16 5 9
7 6 7 9 11 13 13 11 10 10 11 14 15 16 17 20 24 5 6 4 6 5 6 8 7 6 1 2 2 9 7 12 8 5 9 8 7 7 6 14 13 13 10 5 8
10 8 6 8 10 14 13 13 9 10 12 13 15 17 17 19 14 2 3 4 5 5 5 6 6 6 2 2 4 4 9 6 11 7 10 10 14 11 8 14 14 13 10 14 14
13 9 7 11 12 14 15 13 12 11 12 11 14 16 15 17 6 3 5 10 5 4 4 6 7 7 5 4 5 8 11 12 10 12 12 15 16 18 17 18 14 13 12 15 17
11 9 11 14 14 14 13 12 12 12 12 13 15 17 14 10 10 7 11 13 14 12 14 12 11 8 8 5 8 13 14 15 15 18 20 21 23 21 27 20 20 25 24 22 20
11 13 11 9 9 10 11 12 14 15 15 16 16 16 11 13 9 11 11 12 10 13 13 10 3 2 9 10 11 9 16 21 20 18 15 17 22 21 23 17 16 16 20 20 21
12 7 8 10 13 14 16 15 16 17 18 17 15 14 12 18 19 15 14 12 10 11 11 11 8 6 3 7 8 12 17 18 21 21 16 15 22 25 22 22 27 25 23 23 25
4 6 11 16 16 17 18 17 17 19 20 18 15 12 9 13 13 6 8 12 10 11 13 11 10 7 13 10 11 11 13 12 2 7 7 10 25 16 8 14 20 22 24 28 24
8 10 16 16 16 18 17 17 18 19 18 14 8 4 7 6 6 12 15 14 12 11 11 8 7 7 5 8 10 8 12 18 17 15 5 14 19 14 9 18 24 27 26 26 24
10 16 18 20 19 17 15 12 13 12 7 6 5 2 5 6 20 19 17 12 10 5 4 9 7 5 6 9 11 10 13 15 16 0 14 15 24 20 24 21 23 23 18 19 23
16 18 20 14 9 7 8 8 6 4 10 4 11 10 15 16 17 8 12 9 6 5 5 9 5 13 21 22 23 19 20 25 20 8 11 19 23 25 25 24 24 25 24 25 28
16 9 8 5 5 7 8 5 4 5 8 9 5 9 10 11 9 12 8 5 4 7 8 6 14 23 21 20 22 22 24 28 26 18 14 21 25 24 22 23 28 27 26 23 24
7 7 4 3 4 5 6 6 6 8 4 4 7 6 7 13 8 9 5 3 6 8 11 11 20 13 16 19 20 21 25 24 24 12 17 19 21 23 25 25 31 32 30 27 27
5 5 2 3 3 4 4 6 7 7 2 5 3 2 7 19 6 14 6 5 4 7 7 12 17 13 15 23 21 22 24 26 23 12 11 14 10 16 19 20 22 30 30 30 28
6 3 0 2 2 3 4 8 7 2 1 11 6 8 19 3 10 2 6 5 12 12 4 12 16 17 17 25 18 19 12 12 17 14 18 22 8 17 19 18 21 22 27 29 29
5 4 2 1 2 4 6 8 5 1 3 5 6 11 13 4 4 8 4 7 13 11 14 22 21 15 16 15 12 4 2 5 9 10 12 18 17 17 17 22 23 23 27 30 23
5 4 3 0 2 5 7 5 1 3 3 7 6 11 12 6 8 5 9 8 5 8 12 17 3 4 6 5 3 4 6 3 4 6 8 2 11 17 10 8 9 13 26 22 23
6 5 2 0 3 6 8 3 3 1 4 4 7 11 4 9 3 10 7 6 4 8 12 10 10 1 2 6 4 10 7 4 6 5 4 4 7 3 12 14 20 20 22 25 27
7 5 1 1 3 6 4 4 1 4 3 8 7 4 5 4 4 8 5 5 5 7 8 7 7 4 12 8 3 5 9 5 5 5 6 6 2 4 16 8 10 21 21 23 23
8 4 2 1 4 5 4 2 2 3 2 2 4 2 4 7 9 10 6 3 7 9 12 5 10 2 5 4 3 6 2 4 5 4 5 4 3 11 15 10 12 16 18 24 22
8 3 1 1 3 3 2 2 4 6 4 1 2 3 5 5 6 6 6 9 6 12 17 8 5 8 7 6 12 7 5 5 4 6 4 3 4 13 12 10 10 11 20 24 25
7 1 1 1 3 3 2 5 3 3 1 2 4 4 4 5 5 4 5 5 16 16 11 3 5 7 4 4 14 7 10 4 4 2 4 3 4 14 11 11 12 19 22 24 30
6 4 1 3 2 2 1 1 3 2 2 2 3 3 4 3 4 6 4 6 12 11 13 8 5 7 7 3 16 7 19 5 7 3 15 5 4 10 14 15 21 19 22 27 32
6 2 2 2 4 5 4 2 2 4 3 3 3 3 5 2 4 6 7 6 18 7 18 4 4 7 8 8 11 17 26 25 11 9 13 11 11 14 16 14 14 21 26 28 26
6 2 4 2 2 5 3 5 3 2 3 3 2 5 2 3 3 4 5 10 10 10 12 5 3 2 5 13 19 23 23 24 23 15 10 11 16 14 13 13 17 22 25 26 29
8 6 6 4 7 6 0 5 5 2 4 2 4 5 6 5 4 5 7 4 3 13 9 10 3 2 1 8 10 21 24 21 20 13 13 12 16 12 19 23 25 22 21 21 26
12 10 7 5 4 3 3 5 5 4 5 6 4 3 6 9 9 16 16 18 14 7 6 8 6 6 2 8 8 12 15 16 12 15 9 13 8 10 16 20 21 18 21 20 22
Wind_Direction
299 302 312 327 339 337 336 332 338 330 341 336 343 343 343 335 333 333 354 334 284 283 306 327 317 309 313 271 218 214 244 248 243 240 244 242 252 234 274 262 232 231 239 265 316
330 356 355 348 338 332 337 328 320 329 332 336 340 341 339 329 334 13 38 74 38 352 347 349 353 347 307 295 236 220 239 257 272 298 254 285 259 285 288 233 237 236 233 293 337
347 326 330 340 326 324 330 331 321 329 327 328 332 332 334 333 337 104 68 15 11 3 351 358 8 13 318 278 213 231 248 286 261 287 296 282 277 267 262 250 241 262 289 276 296
331 334 330 322 318 313 316 318 312 318 318 329 327 321 325 326 330 290 245 253 293 323 318 343 334 332 307 270 255 263 255 261 272 283 292 275 282 270 260 266 277 279 285 295 289
321 320 312 310 312 318 321 316 315 316 318 322 319 314 318 309 290 299 254 273 282 284 290 302 295 290 272 274 281 257 269 269 269 267 269 274 264 266 269 265 272 278 280 280 278
298 307 319 339 337 330 326 325 321 316 315 312 314 310 307 287 295 303 294 285 288 279 281 294 286 304 283 270 264 289 284 280 270 267 266 266 265 259 256 267 266 268 275 269 264
302 311 326 321 317 312 312 315 315 311 306 303 305 305 289 272 290 304 307 305 298 278 267 274 268 259 299 285 293 284 290 289 268 252 250 256 265 250 258 252 259 257 264 266 261
316 306 311 311 311 312 311 311 311 307 303 303 295 282 270 282 302 313 308 309 297 286 275 265 268 243 241 265 275 276 278 283 312 230 235 203 268 261 267 234 247 248 252 257 262
279 299 304 304 307 308 310 309 307 305 307 312 300 250 272 298 305 313 301 302 292 282 274 248 219 214 188 227 255 222 265 249 271 236 233 207 265 277 261 248 257 261 253 256 260
299 291 297 301 301 305 315 314 318 309 333 354 61 283 287 310 305 302 300 296 280 258 244 211 208 211 208 209 240 243 240 252 251 129 220 232 249 262 268 264 262 261 257 251 261
289 293 298 308 323 338 341 351 355 341 333 289 300 278 298 308 307 313 304 292 244 216 226 204 212 228 231 223 239 272 268 269 271 279 252 242 254 263 262 262 260 257 256 253 259
303 313 313 360 356 346 360 43 48 326 306 318 320 305 313 322 311 308 293 241 196 246 245 232 229 241 253 254 248 249 257 259 269 254 236 258 258 261 263 258 259 260 250 249 252
329 333 355 12 350 354 22 42 2 353 286 308 325 320 316 322 303 294 270 246 234 258 254 255 261 272 254 255 251 237 239 256 254 279 237 265 268 263 258 249 253 252 249 247 247
278 304 337 349 6 359 19 1 350 347 349 351 341 319 326 315 268 302 275 255 252 285 265 254 265 263 257 253 245 255 238 250 262 256 250 201 269 262 251 243 241 248 239 234 238
234 248 293 352 11 5 350 342 347 22 315 339 312 324 327 286 314 272 310 245 267 266 253 263 284 274 256 261 270 268 287 235 240 251 264 248 254 258 250 255 247 245 236 226 229
212 210 191 48 9 357 341 345 357 265 304 345 320 347 353 324 292 302 299 247 271 279 254 258 268 277 265 275 257 294 128 202 237 246 247 249 220 263 245 243 254 243 224 217 211
194 178 162 134 4 345 345 359 3 61 17 331 334 337 335 297 313 322 319 301 305 311 318 314 258 281 249 259 172 163 160 210 224 218 254 312 208 253 323 238 241 263 213 186 170
175 160 158 32 1 354 350 65 49 96 277 318 318 326 320 342 316 320 306 326 358 307 308 338 319 205 167 233 252 192 192 195 239 224 287 145 238 231 314 272 259 256 165 150 160
170 157 161 41 7 353 30 55 227 196 288 325 324 350 323 334 332 338 329 307 327 353 359 307 270 252 289 278 214 169 218 204 275 244 272 200 307 212 349 314 157 120 133 115 136
173 163 74 21 1 1 69 125 202 224 286 340 0 4 316 320 332 341 319 327 319 359 348 282 288 244 306 299 271 258 114 193 212 265 234 93 54 336 339 6 114 108 107 107 121
175 184 329 22 354 48 79 166 229 238 234 294 297 293 273 303 311 312 296 303 358 323 325 277 247 307 324 30 346 319 269 247 233 236 313 62 23 343 8 26 74 95 99 102 105
172 133 284 150 31 46 115 175 203 254 99 254 264 262 255 303 297 290 289 295 330 329 329 273 306 306 307 346 354 293 292 235 271 76 48 81 42 353 21 35 65 78 85 90 105
172 141 126 174 155 107 185 254 233 229 192 253 255 252 296 275 304 272 288 283 327 338 340 326 347 328 345 333 2 355 21 46 46 23 25 42 8 355 25 35 41 68 76 82 95
161 125 91 104 104 129 146 181 212 231 246 267 285 303 293 269 224 295 302 291 320 330 351 339 26 26 15 350 353 21 26 34 50 59 64 56 52 20 28 36 43 54 66 81 91
170 144 144 159 141 123 135 161 178 168 221 218 258 232 302 296 296 255 301 311 317 358 2 36 351 358 63 41 34 32 24 28 44 35 53 46 51 27 31 43 48 62 67 71 79
166 151 118 98 127 133 58 200 186 195 196 206 232 282 265 232 237 300 340 328 342 327 355 359 307 332 237 341 28 33 20 27 33 25 48 51 52 18 35 45 46 51 61 64 71
185 162 145 161 152 160 196 177 195 158 214 235 264 303 265 259 270 277 275 269 275 308 321 349 336 355 15 354 339 30 359 359 23 25 18 41 33 30 42 41 30 44 56 61 69